Regional Weather Roundup
Issued by NWS

Home | Current Version | Previous Version | Graphics & Text | Print | Product List | Glossary On
Versions: 1 2 3 4 5 6 7 8 9 10 11 12 13 14 15 16 17 18 19 20 21 22 23 24 25 26 27 28 29 30 31 32 33 34 35 36 37 38 39 40 41 42 43 44 45 46 47 48 49 50
000
ASUS43 KDMX 030407
RWRIA

WEATHER ROUNDUP FOR IOWA
NATIONAL WEATHER SERVICE DES MOINES IA
1100 PM CDT SUN AUG 02 2015

NOTE: "FAIR" INDICATES FEW OR NO CLOUDS BELOW 12,000 FEET WITH NO
SIGNIFICANT WEATHER AND/OR OBSTRUCTIONS TO VISIBILITY.

* - THESE STATIONS ARE NOT NWS STATIONS...THUS NOT UNDER NWS
QUALITY CONTROL.  THEY ALSO DO NOT REPORT WEATHER SUCH
AS PRECIPITATION OR FOG.

IAZ001>003-012>014-020>022-031>034-043>046-030500-
   NORTHWEST IOWA

CITY           SKY/WX    TMP DP  RH WIND       PRES   REMARKS
CARROLL *      PTCLDY    73  70  88 N9        29.87R
CHEROKEE *     CLEAR     70  64  83 N5        29.90R
DENISON *      PTCLDY    70  70 100 SE3       29.87R
LE MARS *      CLEAR     70  63  78 NE6       29.91R
ORANGE CITY *  CLEAR     70  63  78 NE3       29.91R
SHELDON *      CLEAR     63  61  94 CALM      29.90R
SPENCER        CLEAR     64  58  80 NW3       29.91R
STORM LAKE *   CLEAR     70  61  73 N12       29.90S
$$

IAZ055>058-069>071-079>083-090>094-030500-
   SOUTHWEST IOWA

CITY           SKY/WX    TMP DP  RH WIND       PRES   REMARKS
ATLANTIC *     CLEAR     73  68  83 S5        29.88R
AUDUBON *      CLEAR     72  66  83 CALM      29.88S
CLARINDA *     PTCLDY    75  68  78 SW7       29.85F
COUNCIL BLFS *   N/A     77  73  88 E5        29.87R
CRESTON *      CLEAR     70  63  78 NW9       29.87R
HARLAN  *      PTCLDY    72  72 100 SW5       29.91R
LAMONI         LGT RAIN  71  59  65 SW12      29.86R
RED OAK *      LGT RAIN  72  68  88 VRB6G14   29.86R
SHENANDOAH *   CLOUDY    79  73  83 NE6       29.86R HX  82
$$

IAZ047>049-059>061-072>074-084-030500-
   CENTRAL IOWA

CITY           SKY/WX    TMP DP  RH WIND       PRES   REMARKS
AMES           CLEAR     74  64  71 N9        29.85R
ANKENY *       CLEAR     73  68  83 W5        29.84R
CHARITON *     CLEAR     66  64  94 SW3       29.84S
DES MOINES     PTCLDY    74  63  68 W6        29.84R
GRINNELL*      PTCLDY    70  63  78 W6        29.84R
KNOXVILLE *    CLEAR     68  61  77 W6        29.82S
MARSHALLTOWN   CLEAR     71  64  78 NW8       29.83R
PELLA *        CLEAR     70  64  83 W7        29.84R
PERRY *          N/A     73  72  94 N3        29.86R
$$

IAZ004>006-015-016-023>025-035-036-030500-
   NORTH CENTRAL IOWA

CITY           SKY/WX    TMP DP  RH WIND       PRES   REMARKS
ALGONA *       CLEAR     68  61  77 N7        29.89R
CLARION *      CLEAR     68  61  77 N7        29.87R
ESTHERVILLE    CLEAR     62  58  86 NW7       29.89R
FORT DODGE *   CLEAR     70  61  73 N3        29.88S
MASON CITY     CLEAR     65  60  84 NW9       29.88R
FOREST CITY *  CLEAR     66  57  72 NW7       29.87R
IOWA FALLS *     N/A     70  61  73 NW6       29.86S
$$

IAZ007>011-017>019-026>030-037>042-050>054-066-030500-
   NORTHEAST IOWA

CITY           SKY/WX    TMP DP  RH WIND       PRES   REMARKS
CEDAR RAPIDS   PTCLDY    72  66  81 NW6       29.79R
CHARLES CITY * CLEAR     66  64  94 W8        29.84R
CLINTON *      CLEAR     79  75  89 W12       29.76R HX  82
DECORAH *      CLEAR     72  61  68 NW8       29.80R
DUBUQUE        CLEAR     76  63  64 NW12      29.77R
MONTICELLO *   CLEAR     75  66  73 NW9G16    29.76S
OELWEIN *        N/A    N/A N/A N/A NW7       29.82R
WATERLOO       CLEAR     72  63  73 NW10      29.81R
$$

IAZ064-065-067-068-078-030500-
   EAST CENTRAL IOWA

CITY           SKY/WX    TMP DP  RH WIND       PRES   REMARKS
DAVENPORT      CLEAR     77  65  66 W9        29.76R
IOWA CITY      CLEAR     75  62  64 W9        29.79R
MT. PLEASANT * CLEAR     79  68  69 W5        29.79R HX  81
MUSCATINE *    CLEAR     73  63  68 W8        29.76F
QUAD CITIES    PTCLDY    76  67  73 W12       29.75R
$$

IAZ062-063-075>077-085>089-095>099-030500-
   SOUTHEAST IOWA

CITY           SKY/WX    TMP DP  RH WIND       PRES   REMARKS
BURLINGTON     PTCLDY    76  72  87 CALM      29.78R
FAIRFIELD *    CLEAR     73  59  60 W8        29.81R
FORT MADISON * CLEAR     75  66  73 W3        29.81R
KEOKUK *       CLEAR     77  57  50 SW8       29.78S
OSKALOOSA *      N/A     66  61  82 W5        29.83R
CENTERVILLE *  CLEAR     68  59  73 S7        29.86R
OTTUMWA        CLEAR     68  59  73 W7        29.81R
WASHINGTON *   CLEAR     72  64  78 W9        29.80S
$$

ABBREVIATIONS USED IN REMARKS
   TC - TEMPERATURES IN CELSIUS
  WCI - WIND CHILL INDEX
   HX - HEAT INDEX
  VSB - VISIBILITY
$$




USA.gov is the U.S. government's official web portal to all federal, state and local government web resources and services.